Location: Betz
(49.1556°N, 2.9558°E)
Time: 14:25:36
(UTC+00:00)

Cosmos 1980 - Pass Details

Date: 18 September 2019
Orbit: 841 x 845 km, 71.0° (Epoch: 21 October)

Event Time Altitude Azimuth Distance (km) Brightness Sun altitude
Rises 19:49:49 0° 329° (NNW) 3,409 7.8 -18.8°
Reaches altitude 10° 19:52:17 10° 326° (NW) 2,469 7.0 -19.2°
Maximum altitude 19:57:52 61° 247° (WSW) 949 4.1 -20.0°
Enters shadow 20:01:35 21° 173° (S) 1,792 5.1 -20.5°
